Location: Hurstbourne Priors
(51.2000°N, 1.3667°W)
Time: 22:16:30
(UTC+00:00)

Altair - Pass Details

Date: 11 April 2021
Orbit: 1501 x 1683 km, 47.2° (Epoch: 13 May)

Event Time Altitude Azimuth Distance (km) Brightness Sun altitude
Rises 10:46:38 0° 260° (W) 4,769 9.9 44.2°
Reaches altitude 10° 10:49:46 10° 258° (WSW) 3,760 9.5 44.5°
Maximum altitude 10:59:09 71° 178° (S) 1,606 9.0 45.1°
Drops below altitude 10° 11:08:17 10° 97° (E) 3,659 9.9 45.6°
Sets 11:11:17 0° 95° (E) 4,634 10.3 45.8°
